Showing default

SKYSAT C3, 41774

Orbit data source: Space-Track

SKYSAT C3, 41774 is a payload satellite owned by Terra Bella (US) in SSO that was launched on Fri, 16 Sep 2016 UTC via a VEGA launch vehicle from the French Guiana (FRGUI). Payload-class satellites include a variety of spacecraft equipped with specific instruments for various scientific and technological missions. These include communications satellites like Starlink; space stations such as the ISS; scientific satellites like the Hubble; Earth observation satellites from companies like Planet Labs, Umbra, and HawkEye 360; GPS; miniature CubeSats for education and research; and military/defense satellites.

Loading next visibility...
Identifier
41774, 2016-058E
Orbit
SSO
Country
Flag of USUS
Related business
Manufacturer
SS/Loral (MDA)
Mission
Operational Commercial Imaging
Bus & Motor
SKYSAT-GEN2, Unknown motor
Mass
110 kg wet, 110 kg dry
Launch date (UTC)
2016-09-16 (9 years ago)
Launch vehicle
VEGA
Launch site
French Guiana (FRGUI)
Object type
Payload
Rocket body
Debris
Shape & HBR
Box, 1.0 m
Radar Cross Section
0.888 m², Medium (>0.1 m² and < 1m²)

Expand to show TLE details & history
Last TLE update: 1 day ago

TLE from 1 day ago
0 SKYSAT C3
1 41774U 16058E   26033.05747139  .00019144  00000-0  38474-3 0  9991
2 41774  96.9227  69.4701 0002194  80.3823 279.7676 15.46674189525183
Epoch: 2026-02-02T01:22Z
TLE epoch observation values (Epoch: 2026-02-02T01:22:45.528Z)
Latitude
0.00003°
Longitude
-83.47783°
Altitude
429.35 km
Speed
7.654 km/s
True Right ascension
04h 37m 52s
True Declination
0° 00' 00"
Sunlit
Object was in full shadow at epoch
Visualization orbit readout
Latitude
Unknown
Longitude
Unknown
Altitude
Unknown
Speed
Unknown
Apparent Right ascension
Unknown
Apparent Declination
Unknown
Sunlit
N/A
Visualization observer readout
Local Sidereal Time
07:32:08
Azimuth
Unknown
Elevation
Unknown
Doppler factor
Unknown
Orbital elements
Apogee altitude
424.866 km
Perigee altitude
421.881 km
Semi-major axis
6,801.51 km
Eccentricity
0.00022
Inclination
96.9227°
RAAN
69.4701°
Arg. of periapsis
80.3823°
True anomaly
279.74282°
Mean anomaly
279.7676°
Eccentric anomaly
279.75521°
Mean motion
3.86932 °/min
Orbital period
93.04 mins
BSTAR
0.00038474
Loading maneuver chart data...
Computing Atmospheric mass density...
Loading historical data...
Loading historical data...
Loading historical data...
Loading historical data...
Loading historical data...
Loading historical data...
Loading historical data...

Documentation

Showing up to 5 results
|